Change the Weather History Date:

Wednesday, January 23, 2013

  Actual Average Record
Temperature  
Mean Temperature 14 °F -  
Max Temperature 21 °F 37 °F 61 °F (1967)
Min Temperature 6 °F 20 °F -17 °F (1936)
Degree Days  
Heating Degree Days 52    
Moisture  
Dew Point 4 °F    
Average Humidity 64    
Maximum Humidity 86    
Minimum Humidity 39    
Precipitation  
Precipitation 0.00 in - - ()
Sea Level Pressure  
Sea Level Pressure 30.21 in    
Wind  
Wind Speed 6 mph (WSW)    
Max Wind Speed 14 mph    
Max Gust Speed 18 mph    
Visibility 9 miles    
Events Snow    
Averages and records for this station are not official NWS values.
T = Trace of Precipitation, MM = Missing Value Source: NWS Daily Summary

Daily Weather History Graph

Daily Weather History Graph

Search for Another Location

Airport or City:

Trip Planner

Search our weather history database for the weather conditions in past years. The results will help you decide how hot, cold, wet, or windy it might be!

Date:

Astronomy

Jan. 23, 2013 Rise Set
Actual Time 7:48 AM EST 5:40 PM EST
Civil Twilight 7:19 AM EST 6:09 PM EST
Nautical Twilight 6:46 AM EST 6:42 PM EST
Astronomical Twilight 6:14 AM EST 7:15 PM EST
Moon 2:50 PM EST (1/23) 4:59 AM EST (1/23)
Length of Visible Light 10h 50m
Length of Day
9h 51m
Waxing Gibbous, 89% of the Moon is Illuminated
Jan 23
Waxing Gibbous
Jan 26
Full
Feb 3
Last Quarter
Feb 10
New
Feb 17
First Quarter

Hourly Weather History & Observations

Time (EST) Temp. Windchill Dew Point Humidity Pressure Visibility Wind Dir Wind Speed Gust Speed Precip Events Conditions
12:03 AM 10.4 °F 4.0 °F 1.4 °F 67% 30.29 in 10.0 mi West 3.5 mph - N/A   Clear
12:23 AM 10.4 °F 0.8 °F -0.4 °F 62% 30.29 in 10.0 mi West 5.8 mph - N/A   Clear
12:43 AM 10.4 °F 2.2 °F -0.4 °F 62% 30.29 in 10.0 mi West 4.6 mph - N/A   Clear
1:03 AM 10.4 °F 0.8 °F -0.4 °F 62% 30.29 in 10.0 mi West 5.8 mph - N/A   Clear
1:23 AM 10.4 °F 0.8 °F -0.4 °F 62% 30.29 in 10.0 mi West 5.8 mph - N/A   Clear
1:43 AM 10.4 °F 2.2 °F -0.4 °F 62% 30.28 in 10.0 mi West 4.6 mph - N/A   Scattered Clouds
2:03 AM 8.6 °F 2.0 °F 1.4 °F 73% 30.28 in 10.0 mi West 3.5 mph - N/A   Mostly Cloudy
2:23 AM 8.6 °F 0.1 °F 1.4 °F 73% 30.29 in 10.0 mi West 4.6 mph - N/A   Scattered Clouds
2:43 AM 8.6 °F 0.1 °F 1.4 °F 73% 30.30 in 10.0 mi West 4.6 mph - N/A   Scattered Clouds
3:03 AM 8.6 °F 2.0 °F 1.4 °F 73% 30.30 in 10.0 mi West 3.5 mph - N/A   Scattered Clouds
3:23 AM 8.6 °F 2.0 °F 1.4 °F 73% 30.29 in 10.0 mi West 3.5 mph - N/A   Overcast
3:43 AM 8.6 °F -2.6 °F -0.4 °F 67% 30.29 in 10.0 mi West 6.9 mph - N/A   Mostly Cloudy
4:04 AM 8.6 °F -1.3 °F -0.4 °F 67% 30.29 in 10.0 mi West 5.8 mph - N/A   Mostly Cloudy
4:23 AM 8.6 °F -3.7 °F -0.4 °F 67% 30.29 in 10.0 mi West 8.1 mph - N/A   Mostly Cloudy
4:43 AM 8.6 °F 0.1 °F -0.4 °F 67% 30.28 in 10.0 mi West 4.6 mph - N/A   Scattered Clouds
5:04 AM 8.6 °F -1.3 °F -0.4 °F 67% 30.29 in 10.0 mi West 5.8 mph - N/A   Scattered Clouds
5:23 AM 8.6 °F - -0.4 °F 67% 30.28 in 10.0 mi Calm Calm - N/A   Mostly Cloudy
5:43 AM 6.8 °F -0.1 °F -0.4 °F 72% 30.29 in 10.0 mi WSW 3.5 mph - N/A   Scattered Clouds
6:03 AM 6.8 °F -2.0 °F -0.4 °F 72% 30.29 in 10.0 mi SW 4.6 mph - N/A   Scattered Clouds
6:23 AM 6.8 °F -0.1 °F -0.4 °F 72% 30.29 in 10.0 mi SW 3.5 mph - N/A   Scattered Clouds
6:43 AM 6.8 °F -0.1 °F -0.4 °F 72% 30.29 in 10.0 mi WSW 3.5 mph - N/A   Scattered Clouds
7:03 AM 8.6 °F 2.0 °F 1.4 °F 73% 30.29 in 10.0 mi WSW 3.5 mph - N/A   Mostly Cloudy
7:23 AM 8.6 °F 2.0 °F 1.4 °F 73% 30.30 in 10.0 mi WSW 3.5 mph - N/A   Overcast
7:43 AM 8.6 °F 2.0 °F 1.4 °F 73% 30.29 in 10.0 mi WSW 3.5 mph - N/A   Overcast
8:03 AM 10.4 °F 0.8 °F 1.4 °F 67% 30.29 in 10.0 mi WSW 5.8 mph - N/A   Overcast
8:23 AM 10.4 °F 0.8 °F 1.4 °F 67% 30.28 in 10.0 mi WSW 5.8 mph - N/A   Overcast
8:43 AM 10.4 °F 4.0 °F 1.4 °F 67% 30.28 in 10.0 mi WSW 3.5 mph - N/A   Overcast
9:03 AM 10.4 °F -1.5 °F 1.4 °F 67% 30.29 in 10.0 mi WSW 8.1 mph - N/A   Overcast
9:23 AM 12.2 °F 1.7 °F 1.4 °F 62% 30.29 in 10.0 mi West 6.9 mph - N/A   Overcast
9:43 AM 12.2 °F 0.7 °F 1.4 °F 62% 30.29 in 10.0 mi WSW 8.1 mph - N/A   Overcast
10:03 AM 12.2 °F 1.7 °F 1.4 °F 62% 30.29 in 10.0 mi WSW 6.9 mph - N/A   Overcast
10:23 AM 12.2 °F -0.2 °F 1.4 °F 62% 30.29 in 10.0 mi WSW 9.2 mph - N/A   Overcast
10:44 AM 14.0 °F 2.0 °F 1.4 °F 57% 30.28 in 10.0 mi SW 9.2 mph - N/A   Overcast
11:03 AM 14.0 °F 2.0 °F 1.4 °F 57% 30.27 in 10.0 mi SW 9.2 mph - N/A   Overcast
11:23 AM 15.8 °F 5.1 °F 3.2 °F 58% 30.25 in 10.0 mi SW 8.1 mph - N/A   Overcast
11:44 AM 15.8 °F 4.2 °F 1.4 °F 53% 30.26 in 10.0 mi West 9.2 mph 18.4 mph N/A   Overcast
12:03 PM 17.6 °F 3.7 °F 3.2 °F 53% 30.26 in 10.0 mi SW 13.8 mph 17.3 mph N/A   Overcast
12:23 PM 17.6 °F 4.3 °F 1.4 °F 49% 30.24 in 10.0 mi SW 12.7 mph - N/A   Overcast
12:44 PM 17.6 °F 6.4 °F 1.4 °F 49% 30.22 in 10.0 mi SSW 9.2 mph - N/A   Overcast
1:03 PM 17.6 °F 5.0 °F 1.4 °F 49% 30.21 in 10.0 mi WSW 11.5 mph - N/A   Overcast
1:23 PM 17.6 °F 5.7 °F 1.4 °F 49% 30.20 in 10.0 mi WSW 10.4 mph - N/A   Overcast
1:43 PM 19.4 °F 8.6 °F 1.4 °F 46% 30.18 in 10.0 mi WSW 9.2 mph - N/A   Overcast
2:03 PM 19.4 °F 7.9 °F 1.4 °F 46% 30.17 in 10.0 mi SW 10.4 mph - N/A   Overcast
2:23 PM 19.4 °F 7.9 °F 1.4 °F 46% 30.17 in 10.0 mi WSW 10.4 mph - N/A   Overcast
2:43 PM 19.4 °F 7.2 °F 1.4 °F 46% 30.16 in 10.0 mi WSW 11.5 mph - N/A   Overcast
3:03 PM 19.4 °F 9.5 °F -0.4 °F 42% 30.15 in 10.0 mi WSW 8.1 mph - N/A   Overcast
3:23 PM 21.2 °F 8.9 °F -0.4 °F 39% 30.15 in 10.0 mi WSW 12.7 mph - N/A   Overcast
3:43 PM 19.4 °F 9.5 °F -0.4 °F 42% 30.15 in 10.0 mi WSW 8.1 mph - N/A   Overcast
4:03 PM 19.4 °F 8.6 °F 1.4 °F 46% 30.15 in 10.0 mi West 9.2 mph - N/A   Overcast
4:23 PM 19.4 °F 10.4 °F 1.4 °F 46% 30.14 in 10.0 mi West 6.9 mph - N/A   Overcast
4:43 PM 19.4 °F 7.9 °F 1.4 °F 46% 30.13 in 10.0 mi WSW 10.4 mph - N/A   Overcast
5:03 PM 19.4 °F 8.6 °F 1.4 °F 46% 30.12 in 10.0 mi SW 9.2 mph - N/A   Overcast
5:23 PM 19.4 °F 8.6 °F 1.4 °F 46% 30.12 in 10.0 mi SW 9.2 mph - N/A   Overcast
5:43 PM 19.4 °F 8.6 °F 3.2 °F 49% 30.11 in 10.0 mi SW 9.2 mph - N/A   Overcast
6:03 PM 19.4 °F 8.6 °F 5.0 °F 54% 30.11 in 10.0 mi SW 9.2 mph - N/A   Overcast
6:24 PM 19.4 °F 9.5 °F 5.0 °F 54% 30.11 in 10.0 mi SW 8.1 mph - N/A   Overcast
6:43 PM 17.6 °F 5.0 °F 6.8 °F 63% 30.12 in 10.0 mi SW 11.5 mph - N/A   Overcast
7:03 PM 17.6 °F 5.0 °F 8.6 °F 68% 30.11 in 10.0 mi WSW 11.5 mph - N/A   Overcast
7:24 PM 17.6 °F 6.4 °F 10.4 °F 73% 30.12 in 5.0 mi WSW 9.2 mph - N/A Snow Light Snow
7:43 PM 17.6 °F 8.2 °F 12.2 °F 79% 30.11 in 4.0 mi WSW 6.9 mph - N/A Snow Light Snow
8:03 PM 17.6 °F 7.3 °F 12.2 °F 79% 30.10 in 4.0 mi WSW 8.1 mph - N/A Snow Light Snow
8:24 PM 17.6 °F 12.3 °F 12.2 °F 79% 30.10 in 4.0 mi SW 3.5 mph - N/A Snow Light Snow
8:43 PM 17.6 °F 10.7 °F 12.2 °F 79% 30.09 in 4.0 mi SW 4.6 mph - N/A Snow Light Snow
9:03 PM 17.6 °F 8.2 °F 14.0 °F 86% 30.08 in 4.0 mi SW 6.9 mph - N/A Snow Light Snow
9:24 PM 17.6 °F 12.3 °F 14.0 °F 86% 30.08 in 5.0 mi WSW 3.5 mph - N/A Snow Light Snow
9:43 PM 17.6 °F 12.3 °F 14.0 °F 86% 30.07 in 10.0 mi WSW 3.5 mph - N/A Snow Light Snow
10:03 PM 17.6 °F 12.3 °F 14.0 °F 86% 30.07 in 10.0 mi WSW 3.5 mph - N/A Snow Light Snow
10:23 PM 17.6 °F 10.7 °F 14.0 °F 86% 30.08 in 5.0 mi WSW 4.6 mph - N/A Snow Light Snow
10:43 PM 17.6 °F 10.7 °F 14.0 °F 86% 30.07 in 3.0 mi West 4.6 mph - N/A Snow Light Snow
11:03 PM 17.6 °F 12.3 °F 14.0 °F 86% 30.06 in 3.0 mi WSW 3.5 mph - N/A Snow Light Snow
11:23 PM 17.6 °F 12.3 °F 14.0 °F 86% 30.06 in 1.8 mi WSW 3.5 mph - N/A Snow Light Snow
11:43 PM 17.6 °F 12.3 °F 14.0 °F 86% 30.06 in 1.5 mi WSW 3.5 mph - N/A Snow Light Snow